Location: Brno
(49.2000°N, 16.6330°E)
Time: 18:55:15
(UTC+02:00)

CARTOSAT-1 - Visible Passes

Search period start: 27 August 2014 00:00
Search period end: 06 September 2014 00:00
Orbit: 616 x 620 km, 97.8° (Epoch: 26 August)

Date Brightness Start Highest point End Pass type
(mag) Time Alt. Az. Time Alt. Az. Time Alt. Az.
27 Aug 4.0 22:10:08 43° E 22:10:30 44° ENE 22:14:37 10° N visible
27 Aug 5.5 23:47:16 22° W 23:47:16 22° W 23:50:10 10° NW visible
28 Aug 3.6 22:27:10 64° ENE 22:27:12 64° ENE 22:31:29 10° N visible
29 Aug 6.0 00:04:18 15° W 00:04:18 15° W 00:06:17 10° NW visible
29 Aug 5.6 21:07:04 12° ENE 21:08:29 13° ENE 21:10:30 10° NNE visible
29 Aug 3.6 22:44:12 78° NNW 22:44:12 78° NNW 22:48:16 10° NNW visible
30 Aug 6.4 00:21:20 10° WNW 00:21:20 10° WNW 00:21:28 10° WNW visible
30 Aug 5.3 21:24:06 17° ENE 21:25:01 18° ENE 21:27:56 10° NNE visible
30 Aug 4.1 23:01:14 55° WNW 23:01:14 55° WNW 23:04:59 10° NNW visible
31 Aug 4.9 21:41:08 24° ENE 21:41:36 25° ENE 21:45:06 10° N visible
31 Aug 4.8 23:18:17 37° WNW 23:18:17 37° WNW 23:21:36 10° NNW visible
01 Sep 4.4 21:58:11 34° ENE 21:58:13 34° ENE 22:02:07 10° N visible
01 Sep 5.4 23:35:19 26° WNW 23:35:19 26° WNW 23:38:06 10° NW visible
02 Sep 4.0 22:15:13 47° NE 22:15:13 47° NE 22:19:02 10° N visible
02 Sep 5.9 23:52:21 18° WNW 23:52:21 18° WNW 23:54:25 10° NW visible
03 Sep 5.8 20:55:36 10° ENE 20:56:17 10° NE 20:56:59 10° NE visible
03 Sep 3.9 22:32:15 58° NNE 22:32:15 58° NNE 22:35:53 10° N visible
04 Sep 6.3 00:09:23 13° WNW 00:09:23 13° WNW 00:10:25 10° WNW visible
04 Sep 5.5 21:12:08 14° ENE 21:12:48 14° ENE 21:15:06 10° NNE visible
04 Sep 4.2 22:49:17 53° NNW 22:49:17 53° NNW 22:52:38 10° NNW visible
05 Sep 5.2 21:29:10 20° ENE 21:29:21 20° ENE 21:32:26 10° NNE visible
05 Sep 4.8 23:06:19 39° NW 23:06:19 39° NW 23:09:19 10° NNW visible
